Find IRS-P2

NORAD ID: 23323 Int'l Des: 1994-068 Owner: ISRO Country: IN operational
LEOCIRCULARRETROGRADESSO

实时位置

正在加载3D地球...

关于 IRS-P2

正在加载描述...

即将过境

Passes for default location (London). Set your location on the main map for personalized predictions.

高度历史

Loading altitude history...

两行轨道根数

1 23323U 94068A 26119.88152254 .00000124 00000-0 73171-4 0 9994
2 23323 98.8979 169.7913 0000989 93.9446 266.1846 14.24654687638188
Epoch: Apr 29, 2026 • Age: 7 hours

当前状态

高度 822.3 km
速度 7.45 km/s
星下点 80.21°N, 177.06°W
发射日期 Oct 15, 1994
运行时间 31.5 years
类型 other

技术详情

分类 Payload
质量 805.00 kg
干质量 750.00 kg
总质量 805.00 kg
长度 1.60 m
直径 1.10 m
跨度 12.00 m
形状 Box + 2 Pan
制造商 ISAC/HAL
平台类型 IRS
阶段状态 In Orbit
所有者/国家 ISRO/IN

Most Searched